Theta_e
300 304 306 305 306 307 307 306 305 306 307 308 308 307 306 306 306 305 304 303 302 301 301 301 300 301 300 300 299 299 298 297 294 295 295 295 291 290 292 293 293 292 294
295 296 298 300 300 300 300 300 301 301 300 300 301 300 299 299 300 299 298 298 297 296 294 294 292 293 291 291 292 294 294 294 292 288 289 286 286 287 288 287 290 291 291
293 293 294 295 295 295 295 295 295 295 294 294 294 293 292 291 292 291 291 291 290 289 288 288 288 288 285 285 286 286 286 288 286 282 283 283 284 284 285 285 284 285 287
291 291 290 291 291 291 291 290 290 290 289 288 288 287 287 286 286 285 284 284 284 284 285 285 285 284 283 283 284 283 286 285 285 284 284 284 285 285 283 282 283 285 285
288 288 287 287 287 286 286 285 284 284 284 284 285 285 284 285 284 283 283 283 283 283 284 284 285 284 287 287 285 285 284 284 284 283 283 283 283 283 282 284 283 283 285
285 283 284 285 284 284 283 283 283 282 281 281 282 283 283 285 289 288 285 283 283 284 283 284 284 284 285 287 288 288 287 284 283 282 282 281 282 282 282 282 282 281 280
282 281 281 281 281 281 281 280 280 280 280 280 281 282 282 284 288 287 286 283 283 283 283 284 284 284 283 283 286 287 286 287 287 285 282 282 281 283 283 282 283 283 282
281 280 280 280 279 279 279 279 279 279 279 279 279 280 281 284 287 286 285 283 283 283 283 282 282 282 283 283 283 282 283 284 284 284 284 284 284 284 284 285 285 284 284
279 279 278 278 277 277 275 276 276 277 277 276 277 275 277 280 286 285 283 282 282 281 281 281 281 281 283 285 282 281 281 283 285 287 287 288 288 288 287 285 282 281 279
277 277 277 276 274 274 275 274 271 272 276 277 276 274 277 277 284 285 282 281 280 280 280 281 281 281 284 285 282 280 278 280 282 283 283 283 284 284 287 285 283 281 279
276 275 274 274 273 273 271 271 270 273 275 274 275 274 275 277 280 283 283 280 280 278 278 278 280 282 284 285 285 281 281 281 279 278 279 280 283 284 284 284 284 282 279
273 272 271 269 273 271 269 271 276 276 275 273 274 274 276 276 280 281 282 281 281 277 277 277 278 281 280 280 278 280 278 276 274 276 278 279 279 280 281 282 283 283 283
271 269 268 272 275 276 275 274 273 273 273 274 275 274 274 275 276 279 280 280 279 277 275 276 277 276 276 273 276 275 271 270 269 269 270 271 273 277 279 282 283 283 282
270 273 275 275 274 274 274 275 274 274 274 274 274 273 273 274 275 277 277 276 276 274 272 271 272 272 272 271 269 269 268 268 267 266 267 269 271 271 272 276 278 280 279
274 274 274 274 274 272 272 273 274 274 275 273 272 272 271 271 275 278 276 274 272 272 266 265 265 265 265 265 264 264 265 265 264 265 266 266 267 268 269 271 272 276 276
273 273 272 271 272 272 273 273 277 278 278 278 277 274 273 277 277 277 275 275 273 271 262 261 262 262 262 262 261 262 263 263 263 264 264 265 265 266 266 268 269 271 273
273 271 271 271 270 270 271 271 271 275 277 276 277 276 276 276 276 274 272 272 271 265 259 260 260 260 260 260 260 259 259 261 261 262 263 264 264 264 265 265 267 269 269
268 271 271 270 271 271 269 268 270 270 267 267 270 272 274 274 274 272 270 266 259 259 254 253 253 254 255 255 256 254 257 258 259 260 261 262 263 263 263 264 266 266 267
271 271 271 270 269 269 268 268 267 266 266 263 261 268 266 272 272 270 266 256 253 253 251 251 251 250 251 251 252 252 252 254 257 257 259 260 261 262 263 264 264 265 267
270 270 270 268 268 267 267 266 264 261 260 259 259 260 256 259 255 253 251 250 249 249 249 249 248 247 247 248 249 249 250 250 253 252 256 258 260 261 262 262 263 264 265
268 268 268 267 266 266 266 265 264 262 260 260 260 257 264 256 253 249 249 247 247 247 248 247 248 247 247 246 246 247 247 251 250 251 250 254 257 258 261 262 261 263 264
267 266 266 266 265 265 265 265 264 263 261 259 257 256 269 253 250 251 251 248 249 249 249 248 248 248 248 248 247 245 247 249 247 247 249 250 255 257 260 260 259 260 261
266 265 265 265 265 265 263 262 262 261 260 259 257 257 254 253 254 252 253 251 247 247 247 245 247 248 247 246 245 247 248 249 250 247 250 251 252 255 259 257 257 257 258
266 265 265 264 264 263 263 262 261 260 260 259 258 257 256 255 254 252 251 248 246 247 246 246 246 247 248 247 246 246 247 248 248 249 249 250 252 254 256 255 254 254 255
265 265 264 264 263 262 261 261 260 260 259 259 257 256 255 253 252 250 249 248 248 247 248 248 247 247 249 249 249 248 249 254 251 251 250 248 251 254 254 249 249 251 250
264 264 264 263 262 262 261 261 260 259 258 257 256 255 254 253 253 252 250 249 249 249 249 248 248 249 249 249 250 252 255 259 257 256 256 256 256 256 249 249 249 248 249
Wind_Speed
3 2 3 3 3 4 4 4 4 4 5 5 5 6 5 6 5 5 5 4 6 4 4 4 3 2 1 1 1 1 1 2 8 7 4 4 6 9 10 8 7 7 8
2 3 3 3 4 5 5 5 5 6 6 6 6 8 6 6 7 6 6 5 6 5 4 5 5 3 4 4 3 3 3 3 4 12 7 3 4 6 9 11 9 9 9
3 4 4 4 5 5 5 6 6 6 7 7 8 7 8 8 8 7 7 7 6 6 6 6 5 5 4 4 4 4 3 2 2 3 6 3 5 4 8 7 5 6 6
3 3 5 5 5 5 6 7 8 7 8 8 9 8 8 8 7 6 6 6 6 5 5 5 5 5 3 3 3 3 2 3 3 3 6 8 7 7 5 8 11 8 9
4 4 5 5 6 6 8 8 7 8 7 7 8 8 7 7 4 6 6 6 6 6 6 5 5 5 6 5 2 2 3 3 4 5 6 7 8 8 10 10 12 11 10
5 5 4 6 6 6 7 7 7 7 7 7 8 7 7 5 14 12 7 5 6 6 5 5 5 6 7 8 8 10 8 5 6 4 7 9 9 10 9 10 11 12 12
6 5 5 6 7 6 6 7 7 7 7 8 7 7 7 6 14 14 11 5 5 5 5 4 4 4 4 5 8 10 9 13 13 10 10 9 11 11 11 13 13 13 13
6 6 6 6 7 6 6 6 6 5 6 6 7 6 6 7 13 13 11 5 5 5 4 6 5 5 6 6 5 4 5 6 7 6 8 10 10 10 10 12 13 13 10
6 5 5 5 6 6 6 5 4 6 6 5 5 5 6 5 13 13 8 5 4 6 6 5 5 5 11 14 7 7 8 8 10 16 18 20 22 22 18 10 10 11 13
5 5 5 6 6 7 6 6 2 3 5 5 7 5 7 5 11 10 6 3 4 4 4 4 8 8 14 16 7 4 8 10 10 10 10 11 13 11 16 9 9 11 10
6 6 5 4 5 5 4 3 3 5 6 6 7 4 4 5 5 8 11 4 2 2 3 4 4 14 14 14 15 7 11 14 13 8 7 8 7 7 7 6 7 8 10
7 7 6 5 3 4 5 3 4 4 5 4 5 3 3 2 6 8 8 8 7 2 3 4 5 14 14 15 11 17 18 13 7 9 9 7 9 9 9 9 10 9 9
7 7 5 6 5 4 5 5 3 4 3 2 2 2 2 4 3 5 6 8 7 4 4 7 10 13 14 11 16 19 12 8 8 7 8 8 9 11 14 12 10 10 10
9 8 6 6 5 4 3 3 4 3 3 2 3 3 3 2 3 3 2 2 6 4 6 5 8 9 11 9 7 10 7 7 6 7 7 9 9 10 10 11 12 10 9
8 7 6 5 6 6 3 3 3 2 5 5 4 3 2 1 1 2 3 0 1 4 3 2 2 3 4 5 5 5 5 6 6 7 8 9 9 9 9 10 10 11 9
9 7 7 6 6 5 5 4 6 6 7 7 10 6 1 3 4 6 5 6 8 4 3 2 3 4 5 5 6 6 5 7 7 8 8 8 9 10 10 10 9 9 11
9 8 6 6 6 6 6 6 7 6 7 5 5 6 4 5 5 6 5 7 10 5 3 2 2 4 3 4 4 4 5 7 8 6 7 8 9 9 12 11 10 10 11
5 8 6 5 5 5 5 5 4 5 5 2 1 4 3 5 6 5 4 5 3 5 2 2 1 2 2 2 2 2 5 5 5 6 7 7 7 8 10 10 11 11 12
7 6 6 5 5 5 4 4 4 4 4 3 0 3 3 6 6 4 7 3 3 1 0 1 2 2 2 3 3 3 2 4 6 6 6 6 7 8 9 9 10 14 14
6 7 6 5 5 5 5 6 5 4 3 4 3 3 2 2 1 2 1 2 2 2 3 3 3 3 3 3 4 3 2 3 4 3 5 6 6 7 8 10 10 11 11
5 6 8 6 6 5 5 6 6 5 5 5 5 3 9 4 4 3 3 3 4 3 4 4 3 3 4 4 3 3 3 4 4 4 3 4 6 7 7 8 9 10 10
6 6 6 7 6 7 7 5 5 5 4 4 3 3 9 3 3 4 4 4 4 4 4 3 4 5 5 4 4 3 4 5 4 3 4 3 5 6 7 7 8 9 10
8 8 7 6 7 8 6 5 6 6 6 6 5 4 3 3 4 4 4 3 3 4 4 4 5 5 4 5 5 5 5 6 5 4 5 4 4 5 6 6 7 8 8
10 10 10 8 6 6 6 7 6 8 7 6 5 5 5 4 4 5 4 4 3 4 4 4 5 7 5 5 5 5 5 5 5 6 7 5 6 6 4 4 4 6 7
8 8 9 9 9 9 8 7 7 6 6 6 5 4 4 4 4 5 5 4 4 4 5 5 4 6 9 10 8 8 8 11 7 7 5 5 7 8 6 3 3 4 4
8 8 7 7 7 7 7 7 7 6 6 6 5 4 4 5 5 5 4 4 4 5 6 5 6 10 10 8 9 10 10 11 9 9 7 7 7 6 3 4 6 3 5
Wind_Direction
28 17 54 52 59 77 95 98 90 83 75 93 100 91 82 87 77 98 84 88 103 102 82 111 84 73 48 36 7 316 253 248 280 288 302 328 321 321 320 313 309 302 299
60 88 78 64 61 70 72 63 68 69 58 63 72 76 69 65 65 65 85 72 81 80 69 73 59 27 38 27 15 333 330 346 313 296 304 305 299 303 305 310 314 310 307
79 90 68 62 67 67 71 66 63 71 64 59 65 69 65 53 61 55 64 70 65 66 52 56 47 37 28 15 5 352 346 312 291 277 297 314 304 309 305 299 294 287 285
102 108 96 74 66 54 61 62 60 59 69 65 64 68 67 66 64 64 69 70 67 65 65 59 58 61 56 22 13 347 317 291 278 297 312 313 315 310 291 305 310 302 304
133 119 101 84 80 82 76 75 74 76 79 83 84 71 65 64 62 68 67 69 71 64 48 40 33 27 30 30 29 326 333 332 328 320 309 309 311 315 313 312 303 310 308
128 116 100 93 84 82 87 89 89 82 72 78 75 78 73 66 70 70 74 73 62 54 45 37 31 15 0 350 357 346 342 332 321 307 304 305 304 306 306 306 306 313 316
130 122 113 108 101 94 93 87 81 79 81 74 68 66 67 67 71 63 62 62 68 59 40 19 3 13 337 330 343 348 335 314 308 303 299 296 299 300 304 304 303 302 305
132 131 128 120 112 104 93 92 90 84 88 89 81 66 75 75 74 70 65 53 51 41 30 21 13 344 338 337 350 334 304 289 281 284 278 284 280 289 289 295 296 296 292
131 127 113 109 108 106 102 109 97 105 91 82 91 82 78 64 71 64 57 56 50 35 8 345 331 339 338 343 335 319 315 309 305 303 300 304 309 312 309 308 305 303 303
138 127 117 118 126 124 123 116 88 85 95 96 85 58 60 45 70 75 82 76 51 18 342 337 346 341 339 332 324 314 321 311 313 323 323 318 307 292 298 296 303 301 310
105 101 93 87 103 110 117 97 112 105 103 95 90 72 69 40 34 59 58 56 65 3 345 345 346 336 337 343 2 357 339 341 330 318 311 306 304 314 320 308 287 287 294
116 103 94 75 72 70 70 53 71 85 99 99 105 105 84 76 50 44 39 46 40 51 9 358 345 9 9 14 11 4 0 360 346 338 330 332 333 321 313 302 295 285 282
116 120 118 116 111 107 111 102 83 60 55 75 119 125 90 43 14 18 20 37 32 55 25 25 27 26 25 20 13 13 8 3 353 349 340 329 325 320 317 306 295 290 290
137 139 131 127 117 96 96 112 121 129 141 142 136 91 62 12 338 333 22 21 35 48 39 35 38 37 38 24 4 11 1 358 345 337 328 322 321 325 327 325 318 306 305
143 145 140 141 148 139 124 128 146 150 176 160 133 130 139 162 270 57 91 260 65 58 87 27 31 14 23 19 6 354 348 346 353 340 332 333 331 327 325 321 316 314 306
156 161 162 157 157 151 149 131 162 176 167 150 152 150 198 182 112 81 72 55 51 95 52 35 32 26 26 8 356 348 350 353 349 341 333 329 330 328 325 323 319 323 323
168 161 159 162 166 167 158 164 157 142 110 100 122 118 160 138 114 89 86 78 59 66 73 48 45 23 1 354 350 344 333 334 328 328 323 322 326 323 327 328 330 328 327
137 158 163 170 170 170 168 171 165 169 165 166 12 156 178 147 134 109 130 93 45 39 77 66 340 315 296 282 309 309 314 319 320 316 315 320 318 320 327 329 329 329 326
167 174 172 161 161 148 152 161 165 163 179 156 187 206 336 169 141 118 78 113 132 110 161 244 233 267 296 291 279 272 264 292 304 308 310 311 318 324 323 325 323 326 329
170 172 167 159 156 156 178 161 159 165 174 178 192 200 209 124 167 220 125 116 138 206 219 226 257 250 248 249 261 258 274 281 286 279 299 311 314 317 318 324 327 326 327
168 160 163 158 164 180 184 181 174 180 188 197 211 206 195 168 193 197 186 192 194 218 230 219 238 244 246 254 259 269 258 265 261 268 270 295 305 315 312 320 319 321 321
171 173 176 183 176 178 182 180 188 191 192 193 219 248 239 142 189 201 210 214 215 214 221 208 233 230 229 228 235 238 252 265 266 266 270 267 290 301 300 321 324 325 325
174 177 187 192 189 179 180 176 181 184 193 204 197 206 212 213 224 223 228 226 220 234 234 210 234 251 238 237 225 216 234 247 241 228 261 270 278 294 300 314 318 321 325
187 187 185 190 187 185 190 196 196 195 197 201 200 205 218 217 225 234 231 229 234 241 233 231 229 243 257 252 240 234 233 245 241 241 236 247 268 279 279 289 289 299 307
192 186 190 191 185 187 188 190 196 195 197 198 202 204 212 225 234 239 236 229 238 243 252 245 243 250 258 263 261 257 254 269 255 242 234 230 248 262 264 251 270 294 290
192 196 191 183 186 190 190 192 197 193 201 204 208 209 215 227 239 241 239 236 246 248 255 245 245 254 259 259 259 264 262 268 264 248 241 241 249 256 237 259 280 271 283